Regional Weather Roundup
Issued by NWS

Home | Current Version | Previous Version | Text Only | Print | Product List | Glossary Off
Versions: 1 2 3 4 5 6 7 8 9 10 11 12 13 14 15 16 17 18 19 20 21 22 23 24 25 26 27 28 29 30 31 32 33 34 35 36 37 38 39 40 41 42 43 44 45 46 47

000
ASUS45 KSLC 251510
RWRUT

UTAH REGIONAL WEATHER ROUNDUP
NATIONAL WEATHER SERVICE SALT LAKE CITY UT
800 AM MST THU DEC 25 2014

UTZ001>011-023>025-251600-

NORTHERN UTAH

CITY           SKY/WX    TMP DP  RH WIND       PRES   REMARKS
BRIGHAM CITY   CLOUDY    30  24  78 N8        29.59R WCI  23
HILL AFB       FLURRIES  28  25  89 SE7       29.56R WCI  20
LOGAN          LGT SNOW  28  25  88 W8        29.56R FOG     WCI  20
OGDEN          LGT SNOW  28  26  92 SE5       29.57R FOG     WCI  23
PROVO AIRPORT  LGT SNOW  28  23  80 NW9       29.59R WCI  20
SALT LAKE CITY CLOUDY    32  21  64 W15       29.60R WCI  22
VERNAL         CLOUDY    24  21  88 CALM      29.50S
WENDOVER       CLOUDY    30  14  51 NW31G40   29.62F WCI  15
HEBER CITY     LGT SNOW  27  23  86 SE10      29.51R VSB 1   WCI  17
WEST JORDAN    CLOUDY    28  25  86 W7        29.60R WCI  21

$$

UTZ012>022-026-027-251600-

SOUTHERN/CENTRAL UTAH

CITY           SKY/WX    TMP DP  RH WIND       PRES   REMARKS
BLANDING       CLOUDY    29  27  92 N5        29.62S WCI  24
BRYCE CANYON   LGT SNOW  24  19  81 W16       29.49F WCI  11
CEDAR CITY     LGT SNOW  26  24  92 W6        29.62R VSB 3/4 WCI  19
DELTA          CLOUDY    28  23  82 N12       29.64R WCI  18
MILFORD        SNOW      27  25  92 N12       29.63R VSB 1/2 WCI  17
MOAB/CYNLANDS  LGT SNOW  30  23  75 S3        29.51R
PRICE          LGT SNOW  25  22  88 CALM      29.48R FOG
ST GEORGE      CLOUDY    37  28  70 W9        29.69R WCI  31
KANAB          MOCLDY    32  28  86 SW12G23   29.64S WCI  23

$$

REGIONAL REPORTS     COLORADO/ARIZONA

CITY           SKY/WX    TMP DP  RH WIND       PRES   REMARKS
CRAIG, CO      FLURRIES  28  26  92 NE6       29.48F WCI  22
GRAND JUNCTION LGT SNOW  28  23  81 N7        29.50S WCI  21
RIFLE          LGT SNOW  24  21  88 CALM      29.55S FOG
MONTROSE       CLOUDY    33  20  58 NW5       29.52F WCI  29
CORTEZ         CLOUDY    38  15  39 S18G24    29.57F WCI  28
PAGE, AZ       CLOUDY    42  22  44 SW10      29.57S
GRAND CANYON   CLOUDY    28  23  81 W6        29.65S WCI  22
KINGMAN        CLOUDY    43  21  41 SW15      29.71R
FLAGSTAFF      CLOUDY    30  12  47 SW18G28   29.66F WCI  18

$$

REGIONAL REPORTS    NEVADA/IDAHO/WYOMING

CITY           SKY/WX    TMP DP  RH WIND       PRES   REMARKS
LAS VEGAS, NV  PTCLDY    48  18  30 NW22G30   29.73R
ELY            PTCLDY    18  10  71 NW15      29.72R WCI   4
ELKO           CLOUDY    25  18  74 W16       29.76F WCI  12
POCATELLO, ID  LGT SNOW  27  26  96 SW17      29.57R VSB 3/4 WCI  14
EVANSTON, WY   CLOUDY    20  18  92 SW16      29.45R WCI   6
ROCK SPRINGS   LGT SNOW  24  22  91 SE8       29.42R FOG     WCI  15
KEMMERER       CLOUDY    21  21 100 W15       29.42R WCI   8

$$


USA.gov is the U.S. government's official web portal to all federal, state and local government web resources and services.